Regional Weather Roundup
Issued by NWS

Home | Current Version | Previous Version | Graphics & Text | Print | Product List | Glossary On
Versions: 1 2 3 4 5 6 7 8 9 10 11 12 13 14 15 16 17 18 19 20 21 22 23 24 25 26
000
ASUS45 KCYS 261210
RWRWY

WYOMING REGIONAL WEATHER ROUNDUP
NATIONAL WEATHER SERVICE CHEYENNE WY
600 AM MDT WED JUL 26 2017

NOTE:  "FAIR" INDICATES FEW OR NO CLOUDS BELOW 12,000 FEET
WITH NO SIGNIFICANT WEATHER AND/OR OBSTRUCTIONS TO VISIBILITY.

WYZ001-261300-
YELLOWSTONE NATIONAL PARK

CITY           SKY/WX    TMP DP  RH WIND       PRES   REMARKS
LK YELLOWSTONE   N/A     47  47 100 CALM      30.40S
6HR MIN TEMP:  40; 6HR MAX TEMP:  47;

W YELLOWSTONE  NOT AVBL

$$
WYZ002>013-054>058-071-098>099-261300-
NORTHERN WYOMING

CITY           SKY/WX    TMP DP  RH WIND       PRES   REMARKS
JACKSON        FAIR      45  45 100 N5        30.32R
CODY           FAIR      53  50  89 CALM      30.23R
GREYBULL       FAIR      54  49  83 CALM      30.16S
6HR MIN TEMP:  54; 6HR MAX TEMP:  61;

WORLAND        FAIR      52  52 100 CALM      30.18R
6HR MIN TEMP:  52; 6HR MAX TEMP:  60;

SHERIDAN       FAIR      54  52  93 S3        30.17S
6HR MIN TEMP:  54; 6HR MAX TEMP:  64;

BUFFALO        FAIR      58  51  78 NW5       30.23R
6HR MIN TEMP:  58; 6HR MAX TEMP:  65;

GILLETTE       FAIR      62  61  96 S3        30.19R
6HR MIN TEMP:  61; 6HR MAX TEMP:  64; 6HR PCP:  0.01;

HULETT         FAIR      63  55  77 S3        30.20S
NEWCASTLE      LGT RAIN  59  57  94 SE3       30.22R

$$
WYZ014>020-022>026-101>103-261300-
CENTRAL WYOMING

CITY           SKY/WX    TMP DP  RH WIND       PRES   REMARKS
BIG PINEY      FAIR      49  47  93 CALM      30.35R
6HR MIN TEMP:  49; 6HR MAX TEMP:  57;

PINEDALE       FAIR      45  43  93 NW6       30.35S
DUBOIS         FAIR      45  41  87 NW10      30.34S
LANDER         FAIR      58  49  72 CALM      30.25R
6HR MIN TEMP:  57; 6HR MAX TEMP:  66;

RIVERTON       FAIR      55  50  83 NW9       30.25R
6HR MIN TEMP:  54; 6HR MAX TEMP:  65;

CASPER         CLOUDY    60  58  92 SE5       30.25R
6HR MIN TEMP:  59; 6HR MAX TEMP:  62;

DOUGLAS        LGT RAIN  61  59  93 S3        30.24R FOG
6HR MIN TEMP:  61; 6HR MAX TEMP:  63; 6HR PCP:  0.12;


$$
WYZ021-027>030-104>119-261300-
SOUTHERN WYOMING

CITY           SKY/WX    TMP DP  RH WIND       PRES   REMARKS
EVANSTON       FAIR      58  53  84 S5        30.34R
6HR MIN TEMP:  57; 6HR MAX TEMP:  61;

KEMMERER         N/A     54  46  76 N7        30.35S
FORT BRIDGER   FAIR      56  53  89 NW6       30.36R
ROCK SPRINGS   CLOUDY    57  52  83 E5        30.32R
6HR MIN TEMP:  56; 6HR MAX TEMP:  58;

RAWLINS        CLOUDY    59  57  93 N6        30.32R FOG
6HR MIN TEMP:  57; 6HR MAX TEMP:  59; 6HR PCP:  0.14;

SARATOGA       CLOUDY    59  59 100 CALM      30.33R
LARAMIE        CLOUDY    57  56  96 CALM      30.32R
6HR MIN TEMP:  56; 6HR MAX TEMP:  58; 6HR PCP:  0.11;

CHEYENNE       CLOUDY    60  58  92 N8        30.27R
6HR MIN TEMP:  60; 6HR MAX TEMP:  63; 6HR PCP:  0.01;

TORRINGTON     LGT RAIN  62  59  90 NW10      30.17R
6HR MIN TEMP:  62; 6HR MAX TEMP:  70; 6HR PCP:  0.01;

PINE BLUFFS    FAIR      63  59  88 N9        30.21R

$$




USA.gov is the U.S. government's official web portal to all federal, state and local government web resources and services.